Location: Ripley
(48.3812°N, 115.4473°W)
Time: 09:56:21
(UTC+00:00)

EO-88 - Pass Details

Date: 01 July 2022
Orbit: 454 x 462 km, 97.3° (Epoch: 07 August)

Event Time Altitude Azimuth Distance (km) Brightness Sun altitude
Exits shadow 04:42:16 10° 150° (SSE) 1,660 ? -7.6°
Reaches altitude 10° 04:42:21 10° 150° (SSE) 1,625 ? -7.6°
Maximum altitude 04:45:45 52° 73° (ENE) 592 ? -8.0°
Drops below altitude 10° 04:49:10 10° 357° (N) 1,636 ? -8.3°
Sets 04:51:15 0° 352° (N) 2,516 ? -8.6°
